ProjectID,Date,Electric Generation,Electric Utility Import,Facility Electric Load
,YYYY-MM-DD,kW,kW,kW
251,2015-04-01,0.0,,0.0
251,2015-04-02,0.0,,0.0
251,2015-04-03,0.0,,0.0
251,2015-04-04,0.0,,0.0
251,2015-04-05,0.0,,0.0
251,2015-04-06,0.0,,0.0
251,2015-04-07,0.0,,0.0
251,2015-04-08,0.0,,0.0
251,2015-04-09,0.0,,0.0
251,2015-04-10,0.0,,0.0
251,2015-04-11,0.0,,0.0
251,2015-04-12,0.0,,0.0
251,2015-04-13,0.0,,0.0
251,2015-04-14,0.0,,0.0
251,2015-04-15,0.0,,0.0
251,2015-04-16,0.0,,0.0
251,2015-04-17,0.0,,0.0
251,2015-04-18,0.0,,0.0
251,2015-04-19,0.0,,0.0
251,2015-04-20,0.0,,0.0
251,2015-04-21,0.0,,0.0
251,2015-04-22,0.0,,0.0
251,2015-04-23,0.0,,0.0
251,2015-04-24,84.15291666666666,,84.15291666666666
251,2015-04-25,113.89958333333334,,113.89958333333334
251,2015-04-26,92.4475,,92.4475
251,2015-04-27,67.65333333333335,,67.65333333333335
251,2015-04-28,111.33791666666669,,111.33791666666669
251,2015-04-29,112.02666666666666,,112.02666666666666
251,2015-04-30,97.97333333333334,,97.97333333333334
251,2015-05-01,86.9541666666667,,86.9541666666667
251,2015-05-02,115.07666666666671,,115.07666666666671
251,2015-05-03,112.85500000000003,,112.85500000000003
251,2015-05-04,57.77041666666667,,57.77041666666667
251,2015-05-05,79.76625,,79.76625
251,2015-05-06,43.85458333333333,,43.85458333333333
251,2015-05-07,109.23625000000003,,109.23625000000003
251,2015-05-08,107.92124999999999,,107.92124999999999
251,2015-05-09,42.65666666666666,,42.65666666666666
251,2015-05-10,86.54583333333335,,86.54583333333335
251,2015-05-11,80.63374999999998,,80.63374999999998
251,2015-05-12,89.64833333333333,,89.64833333333333
251,2015-05-13,82.7025,,82.7025
251,2015-05-14,117.90750000000003,,117.90750000000003
251,2015-05-15,89.12500000000001,,89.12500000000001
251,2015-05-16,64.38208333333331,,64.38208333333331
251,2015-05-17,61.56833333333331,,61.56833333333331
251,2015-05-18,30.786249999999992,,30.786249999999992
251,2015-05-19,68.73041666666666,,68.73041666666666
251,2015-05-20,94.13,,94.13
251,2015-05-21,50.476249999999986,,50.476249999999986
251,2015-05-22,93.07124999999998,,93.07124999999998
251,2015-05-23,117.30374999999998,,117.30374999999998
251,2015-05-24,106.55458333333337,,106.55458333333337
251,2015-05-25,96.11375000000004,,96.11375000000004
251,2015-05-26,100.04041666666666,,100.04041666666666
251,2015-05-27,79.62874999999998,,79.62874999999998
251,2015-05-28,78.56541666666666,,78.56541666666666
251,2015-05-29,103.29666666666667,,103.29666666666667
251,2015-05-30,104.30333333333334,,104.30333333333334
251,2015-05-31,69.70083333333332,,69.70083333333332
251,2015-06-01,17.486250000000002,,17.486250000000002
251,2015-06-02,19.448333333333334,,19.448333333333334
251,2015-06-03,102.12916666666666,,102.12916666666666
251,2015-06-04,65.71,,65.71
251,2015-06-05,57.91833333333333,,57.91833333333333
251,2015-06-06,73.75041666666665,,73.75041666666665
251,2015-06-07,121.91749999999998,,121.91749999999998
251,2015-06-08,83.33041666666665,,83.33041666666665
251,2015-06-09,73.61749999999999,,73.61749999999999
251,2015-06-10,115.09999999999998,,115.09999999999998
251,2015-06-11,90.15625,,90.15625
251,2015-06-12,98.33208333333334,,98.33208333333334
251,2015-06-13,107.07375,,107.07375
251,2015-06-14,97.56583333333333,,97.56583333333333
251,2015-06-15,35.709583333333335,,35.709583333333335
251,2015-06-16,45.467499999999994,,45.467499999999994
251,2015-06-17,91.31958333333336,,91.31958333333336
251,2015-06-18,38.69833333333333,,38.69833333333333
251,2015-06-19,77.51958333333333,,77.51958333333333
251,2015-06-20,18.86208333333333,,18.86208333333333
251,2015-06-21,80.00916666666666,,80.00916666666666
251,2015-06-22,95.83666666666666,,95.83666666666666
251,2015-06-23,11.667083333333332,,11.667083333333332
251,2015-06-24,0.0,,0.0
251,2015-06-25,0.0,,0.0
251,2015-06-26,0.0,,0.0
251,2015-06-27,0.0,,0.0
251,2015-06-28,0.0,,0.0
251,2015-06-29,0.0,,0.0
251,2015-06-30,3.4250000000000003,,3.4250000000000003
251,2015-07-01,96.60375,,96.60375
251,2015-07-02,78.27,,78.27
251,2015-07-03,123.32583333333334,,123.32583333333334
251,2015-07-04,65.38666666666666,,65.38666666666666
251,2015-07-05,119.02541666666667,,119.02541666666667
251,2015-07-06,101.61333333333336,,101.61333333333336
251,2015-07-07,109.02958333333335,,109.02958333333335
251,2015-07-08,69.93958333333333,,69.93958333333333
251,2015-07-09,55.825416666666655,,55.825416666666655
251,2015-07-10,127.55291666666666,,127.55291666666666
251,2015-07-11,123.80250000000001,,123.80250000000001
251,2015-07-12,115.73458333333338,,115.73458333333338
251,2015-07-13,113.48625,,113.48625
251,2015-07-14,68.07166666666666,,68.07166666666666
251,2015-07-15,34.87958333333332,,34.87958333333332
251,2015-07-16,136.61250000000004,,136.61250000000004
251,2015-07-17,129.55958333333334,,129.55958333333334
251,2015-07-18,69.1225,,69.1225
251,2015-07-19,123.3529166666667,,123.3529166666667
251,2015-07-20,103.0175,,103.0175
251,2015-07-21,62.915,,62.915
251,2015-07-22,127.86125000000003,,127.86125000000003
251,2015-07-23,131.5870833333333,,131.5870833333333
251,2015-07-24,119.20958333333333,,119.20958333333333
251,2015-07-25,129.15250000000003,,129.15250000000003
251,2015-07-26,101.1275,,101.1275
251,2015-07-27,102.15875,,102.15875
251,2015-07-28,93.01208333333335,,93.01208333333335
251,2015-07-29,84.23375,,84.23375
251,2015-07-30,49.59374999999999,,49.59374999999999
251,2015-07-31,122.52375,,122.52375
251,2015-08-01,119.33458333333333,,119.33458333333333
251,2015-08-02,125.76166666666667,,125.76166666666667
251,2015-08-03,122.32041666666665,,122.32041666666665
251,2015-08-04,121.91666666666669,,121.91666666666669
251,2015-08-05,101.97625,,101.97625
251,2015-08-06,108.47291666666668,,108.47291666666668
251,2015-08-07,126.445,,126.445
251,2015-08-08,107.69958333333334,,107.69958333333334
251,2015-08-09,117.81500000000001,,117.81500000000001
251,2015-08-10,110.13,,110.13
251,2015-08-11,42.53000000000001,,42.53000000000001
251,2015-08-12,117.26458333333335,,117.26458333333335
251,2015-08-13,120.1416666666667,,120.1416666666667
251,2015-08-14,119.02458333333335,,119.02458333333335
251,2015-08-15,113.60833333333336,,113.60833333333336
251,2015-08-16,94.18875000000003,,94.18875000000003
251,2015-08-17,91.99625000000003,,91.99625000000003
251,2015-08-18,107.53749999999998,,107.53749999999998
251,2015-08-19,63.145833333333314,,63.145833333333314
251,2015-08-20,83.83208333333332,,83.83208333333332
251,2015-08-21,89.94416666666666,,89.94416666666666
251,2015-08-22,117.84208333333335,,117.84208333333335
251,2015-08-23,89.43250000000002,,89.43250000000002
251,2015-08-24,96.89166666666667,,96.89166666666667
251,2015-08-25,106.77375,,106.77375
251,2015-08-26,104.34250000000002,,104.34250000000002
251,2015-08-27,102.54916666666672,,102.54916666666672
251,2015-08-28,115.77750000000002,,115.77750000000002
251,2015-08-29,107.97666666666669,,107.97666666666669
251,2015-08-30,91.22250000000003,,91.22250000000003
251,2015-08-31,72.64958333333333,,72.64958333333333
251,2015-09-01,90.2866666666667,,90.2866666666667
251,2015-09-02,85.20958333333333,,85.20958333333333
251,2015-09-03,89.50125000000001,,89.50125000000001
251,2015-09-04,52.375,,52.375
251,2015-09-05,103.2254166666667,,103.2254166666667
251,2015-09-06,101.60250000000002,,101.60250000000002
251,2015-09-07,99.42875,,99.42875
251,2015-09-08,92.40458333333333,,92.40458333333333
251,2015-09-09,70.37124999999999,,70.37124999999999
251,2015-09-10,22.79166666666666,,22.79166666666666
251,2015-09-11,75.49458333333332,,75.49458333333332
251,2015-09-12,49.60708333333333,,49.60708333333333
251,2015-09-13,78.93083333333333,,78.93083333333333
251,2015-09-14,107.95041666666673,,107.95041666666673
251,2015-09-15,101.07291666666669,,101.07291666666669
251,2015-09-16,95.29291666666666,,95.29291666666666
251,2015-09-17,90.9804166666667,,90.9804166666667
251,2015-09-18,90.42708333333333,,90.42708333333333
251,2015-09-19,89.41416666666669,,89.41416666666669
251,2015-09-20,83.70041666666664,,83.70041666666664
251,2015-09-21,79.24374999999998,,79.24374999999998
251,2015-09-22,42.3125,,42.3125
251,2015-09-23,87.16000000000001,,87.16000000000001
251,2015-09-24,90.30875000000003,,90.30875000000003
251,2015-09-25,76.98791666666666,,76.98791666666666
251,2015-09-26,80.13708333333331,,80.13708333333331
251,2015-09-27,52.47166666666666,,52.47166666666666
251,2015-09-28,53.43083333333333,,53.43083333333333
251,2015-09-29,54.41916666666666,,54.41916666666666
251,2015-09-30,27.23833333333333,,27.23833333333333
251,2015-10-01,19.561249999999994,,19.561249999999994
251,2015-10-02,12.95458333333333,,12.95458333333333
251,2015-10-03,11.774999999999999,,11.774999999999999
251,2015-10-04,59.65875,,59.65875
251,2015-10-05,84.33083333333333,,84.33083333333333
251,2015-10-06,87.69125000000003,,87.69125000000003
251,2015-10-07,67.86708333333333,,67.86708333333333
251,2015-10-08,65.52624999999999,,65.52624999999999
251,2015-10-09,53.95291666666666,,53.95291666666666
251,2015-10-10,87.4829166666667,,87.4829166666667
251,2015-10-11,83.13041666666665,,83.13041666666665
251,2015-10-12,79.47124999999998,,79.47124999999998
251,2015-10-13,53.18083333333333,,53.18083333333333
251,2015-10-14,53.51208333333332,,53.51208333333332
251,2015-10-15,74.07000000000001,,74.07000000000001
251,2015-10-16,60.3725,,60.3725
251,2015-10-17,64.90749999999998,,64.90749999999998
251,2015-10-18,61.57291666666665,,61.57291666666665
251,2015-10-19,70.48958333333333,,70.48958333333333
251,2015-10-20,62.362083333333324,,62.362083333333324
251,2015-10-21,58.34749999999999,,58.34749999999999
251,2015-10-22,48.360833333333325,,48.360833333333325
251,2015-10-23,64.52458333333333,,64.52458333333333
251,2015-10-24,26.857916666666657,,26.857916666666657
251,2015-10-25,26.66791666666666,,26.66791666666666
251,2015-10-26,63.697916666666664,,63.697916666666664
251,2015-10-27,37.23833333333333,,37.23833333333333
251,2015-10-28,6.368333333333333,,6.368333333333333
251,2015-10-29,55.00791666666665,,55.00791666666665
251,2015-10-30,70.12374999999999,,70.12374999999999
251,2015-10-31,55.75375,,55.75375
251,2015-11-01,24.03666666666666,,24.03666666666666
251,2015-11-02,32.58333333333332,,32.58333333333332
251,2015-11-03,58.552083333333336,,58.552083333333336
251,2015-11-04,56.95416666666665,,56.95416666666665
251,2015-11-05,22.688749999999995,,22.688749999999995
251,2015-11-06,26.589999999999993,,26.589999999999993
251,2015-11-07,16.715833333333332,,16.715833333333332
251,2015-11-08,56.00416666666666,,56.00416666666666
251,2015-11-09,46.16833333333333,,46.16833333333333
251,2015-11-10,5.8125,,5.8125
251,2015-11-11,22.898333333333326,,22.898333333333326
251,2015-11-12,8.106666666666667,,8.106666666666667
251,2015-11-13,49.41166666666666,,49.41166666666666
251,2015-11-14,54.90208333333334,,54.90208333333334
251,2015-11-15,44.745,,44.745
251,2015-11-16,47.66249999999999,,47.66249999999999
251,2015-11-17,50.5,,50.5
251,2015-11-18,32.25124999999999,,32.25124999999999
251,2015-11-19,11.877916666666662,,11.877916666666662
251,2015-11-20,55.55833333333333,,55.55833333333333
251,2015-11-21,55.17958333333332,,55.17958333333332
251,2015-11-22,14.941666666666658,,14.941666666666658
251,2015-11-23,49.44791666666666,,49.44791666666666
251,2015-11-24,42.704583333333325,,42.704583333333325
251,2015-11-25,49.55875,,49.55875
251,2015-11-26,42.77083333333332,,42.77083333333332
251,2015-11-27,41.34374999999999,,41.34374999999999
251,2015-11-28,13.414166666666665,,13.414166666666665
251,2015-11-29,36.87374999999999,,36.87374999999999
251,2015-11-30,41.87916666666666,,41.87916666666666
251,2015-12-01,5.267916666666667,,5.267916666666667
251,2015-12-02,7.1120833333333335,,7.1120833333333335
251,2015-12-03,25.77999999999999,,25.77999999999999
251,2015-12-04,43.857916666666654,,43.857916666666654
251,2015-12-05,40.74374999999999,,40.74374999999999
251,2015-12-06,41.46999999999999,,41.46999999999999
251,2015-12-07,36.82791666666666,,36.82791666666666
251,2015-12-08,29.25916666666666,,29.25916666666666
251,2015-12-09,11.833333333333329,,11.833333333333329
251,2015-12-10,33.61041666666666,,33.61041666666666
251,2015-12-11,25.152499999999993,,25.152499999999993
251,2015-12-12,21.988333333333326,,21.988333333333326
251,2015-12-13,26.503749999999997,,26.503749999999997
251,2015-12-14,10.631666666666666,,10.631666666666666
251,2015-12-15,40.889166666666654,,40.889166666666654
251,2015-12-16,37.93124999999999,,37.93124999999999
251,2015-12-17,3.09375,,3.09375
251,2015-12-18,7.77625,,7.77625
251,2015-12-19,27.216249999999988,,27.216249999999988
251,2015-12-20,32.260416666666664,,32.260416666666664
251,2015-12-21,14.648333333333333,,14.648333333333333
251,2015-12-22,4.262916666666667,,4.262916666666667
251,2015-12-23,4.305833333333334,,4.305833333333334
251,2015-12-24,9.832083333333333,,9.832083333333333
251,2015-12-25,14.325833333333328,,14.325833333333328
251,2015-12-26,12.713333333333331,,12.713333333333331
251,2015-12-27,12.314999999999996,,12.314999999999996
251,2015-12-28,35.51458333333333,,35.51458333333333
251,2015-12-29,7.16,,7.16
251,2015-12-30,6.773333333333333,,6.773333333333333
251,2015-12-31,18.517500000000002,,18.517500000000002
251,2016-01-01,21.693749999999994,,21.693749999999994
251,2016-01-02,38.55874999999999,,38.55874999999999
251,2016-01-03,46.29041666666666,,46.29041666666666
251,2016-01-04,47.662499999999994,,47.662499999999994
251,2016-01-05,51.68749999999998,,51.68749999999998
251,2016-01-06,49.767083333333325,,49.767083333333325
251,2016-01-07,34.84499999999999,,34.84499999999999
251,2016-01-08,34.56249999999999,,34.56249999999999
251,2016-01-09,14.960833333333328,,14.960833333333328
251,2016-01-10,15.147083333333327,,15.147083333333327
251,2016-01-11,53.97666666666666,,53.97666666666666
251,2016-01-12,24.829166666666662,,24.829166666666662
251,2016-01-13,54.487083333333324,,54.487083333333324
251,2016-01-14,29.927083333333325,,29.927083333333325
251,2016-01-15,33.45583333333333,,33.45583333333333
251,2016-01-16,27.702916666666663,,27.702916666666663
251,2016-01-17,9.96625,,9.96625
251,2016-01-18,52.40749999999999,,52.40749999999999
251,2016-01-19,58.55999999999998,,58.55999999999998
251,2016-01-20,50.57791666666665,,50.57791666666665
251,2016-01-21,56.56249999999999,,56.56249999999999
251,2016-01-22,32.66416666666667,,32.66416666666667
251,2016-01-23,3.2720833333333332,,3.2720833333333332
251,2016-01-24,20.036249999999995,,20.036249999999995
251,2016-01-25,16.018333333333327,,16.018333333333327
251,2016-01-26,16.41291666666666,,16.41291666666666
251,2016-01-27,36.15083333333333,,36.15083333333333
251,2016-01-28,49.67708333333334,,49.67708333333334
251,2016-01-29,24.047083333333337,,24.047083333333337
251,2016-01-30,52.73666666666666,,52.73666666666666
251,2016-01-31,51.245,,51.245
251,2016-02-01,33.50499999999999,,33.50499999999999
251,2016-02-02,60.299583333333324,,60.299583333333324
251,2016-02-03,5.302083333333333,,5.302083333333333
251,2016-02-04,23.84125,,23.84125
251,2016-02-05,2.1250000000000004,,2.1250000000000004
251,2016-02-06,25.497083333333332,,25.497083333333332
251,2016-02-07,52.8075,,52.8075
251,2016-02-08,6.351666666666667,,6.351666666666667
251,2016-02-09,32.994583333333324,,32.994583333333324
251,2016-02-10,29.28125,,29.28125
251,2016-02-11,55.23416666666665,,55.23416666666665
251,2016-02-12,61.0575,,61.0575
251,2016-02-13,73.10958333333333,,73.10958333333333
251,2016-02-14,80.98458333333333,,80.98458333333333
251,2016-02-15,10.03125,,10.03125
251,2016-02-16,8.794166666666667,,8.794166666666667
251,2016-02-17,21.291666666666668,,21.291666666666668
251,2016-02-18,81.95875,,81.95875
251,2016-02-19,52.77833333333333,,52.77833333333333
251,2016-02-20,53.12791666666666,,53.12791666666666
251,2016-02-21,33.47375,,33.47375
251,2016-02-22,79.29208333333332,,79.29208333333332
251,2016-02-23,10.96875,,10.96875
251,2016-02-24,6.47125,,6.47125
251,2016-02-25,27.729166666666657,,27.729166666666657
251,2016-02-26,86.77875,,86.77875
251,2016-02-27,86.76291666666664,,86.76291666666664
251,2016-02-28,85.81791666666668,,85.81791666666668
251,2016-02-29,45.48958333333332,,45.48958333333332
251,2016-03-01,81.05458333333331,,81.05458333333331
251,2016-03-02,79.71624999999999,,79.71624999999999
251,2016-03-03,78.25999999999999,,78.25999999999999
251,2016-03-04,9.440416666666666,,9.440416666666666
251,2016-03-05,81.815,,81.815
251,2016-03-06,69.61708333333333,,69.61708333333333
251,2016-03-07,88.58875,,88.58875
251,2016-03-08,72.17999999999999,,72.17999999999999
251,2016-03-09,83.195,,83.195
251,2016-03-10,54.059999999999995,,54.059999999999995
251,2016-03-11,63.52083333333332,,63.52083333333332
251,2016-03-12,84.91416666666666,,84.91416666666666
251,2016-03-13,38.555,,38.555
251,2016-03-14,14.669166666666667,,14.669166666666667
251,2016-03-15,30.362083333333334,,30.362083333333334
251,2016-03-16,79.91125,,79.91125
251,2016-03-17,70.93499999999999,,70.93499999999999
251,2016-03-18,75.36208333333333,,75.36208333333333
251,2016-03-19,66.38791666666667,,66.38791666666667
251,2016-03-20,67.33333333333333,,67.33333333333333
251,2016-03-21,83.40083333333332,,83.40083333333332
251,2016-03-22,104.39583333333333,,104.39583333333333
251,2016-03-23,78.17708333333333,,78.17708333333333
251,2016-03-24,90.28666666666668,,90.28666666666668
251,2016-03-25,46.23666666666666,,46.23666666666666
251,2016-03-26,103.26583333333333,,103.26583333333333
251,2016-03-27,88.86458333333333,,88.86458333333333
251,2016-03-28,38.60916666666666,,38.60916666666666
251,2016-03-29,116.64875,,116.64875
251,2016-03-30,114.21375,,114.21375
251,2016-03-31,86.48708333333333,,86.48708333333333
251,2016-04-01,54.79166666666666,,54.79166666666666
251,2016-04-02,37.15333333333333,,37.15333333333333
251,2016-04-03,119.01333333333334,,119.01333333333334
251,2016-04-04,15.137916666666667,,15.137916666666667
251,2016-04-05,125.45541666666666,,125.45541666666666
251,2016-04-06,101.98208333333334,,101.98208333333334
251,2016-04-07,41.33333333333333,,41.33333333333333
251,2016-04-08,65.33833333333334,,65.33833333333334
251,2016-04-09,31.150833333333328,,31.150833333333328
251,2016-04-10,123.88041666666668,,123.88041666666668
251,2016-04-11,82.01541666666667,,82.01541666666667
251,2016-04-12,46.992499999999986,,46.992499999999986
251,2016-04-13,121.89833333333333,,121.89833333333333
251,2016-04-14,118.46333333333332,,118.46333333333332
251,2016-04-15,118.16666666666667,,118.16666666666667
251,2016-04-16,118.28916666666667,,118.28916666666667
251,2016-04-17,116.00791666666667,,116.00791666666667
251,2016-04-18,113.08333333333333,,113.08333333333333
251,2016-04-19,110.35916666666667,,110.35916666666667
251,2016-04-20,122.40125,,122.40125
251,2016-04-21,115.98416666666667,,115.98416666666667
251,2016-04-22,90.85416666666667,,90.85416666666667
251,2016-04-23,70.48166666666667,,70.48166666666667
251,2016-04-24,124.89583333333333,,124.89583333333333
251,2016-04-25,98.21375,,98.21375
251,2016-04-26,61.56999999999999,,61.56999999999999
251,2016-04-27,85.02374999999999,,85.02374999999999
251,2016-04-28,76.47124999999998,,76.47124999999998
251,2016-04-29,60.583333333333336,,60.583333333333336
251,2016-04-30,109.45833333333333,,109.45833333333333
251,2016-05-01,23.314999999999994,,23.314999999999994
251,2016-05-02,46.692499999999995,,46.692499999999995
251,2016-05-03,28.630416666666665,,28.630416666666665
251,2016-05-04,23.92958333333333,,23.92958333333333
251,2016-05-05,53.91916666666666,,53.91916666666666
251,2016-05-06,20.958333333333332,,20.958333333333332
251,2016-05-07,41.96083333333332,,41.96083333333332
251,2016-05-08,85.20833333333333,,85.20833333333333
251,2016-05-09,107.72166666666668,,107.72166666666668
251,2016-05-10,84.84374999999999,,84.84374999999999
251,2016-05-11,118.67708333333333,,118.67708333333333
251,2016-05-12,123.97625000000001,,123.97625000000001
251,2016-05-13,32.55458333333332,,32.55458333333332
251,2016-05-14,101.91166666666668,,101.91166666666668
251,2016-05-15,75.02875,,75.02875
251,2016-05-16,122.31500000000001,,122.31500000000001
251,2016-05-17,36.25249999999999,,36.25249999999999
251,2016-05-18,103.81791666666668,,103.81791666666668
251,2016-05-19,99.78916666666667,,99.78916666666667
251,2016-05-20,129.29125,,129.29125
251,2016-05-21,43.48208333333333,,43.48208333333333
251,2016-05-22,80.36958333333332,,80.36958333333332
251,2016-05-23,119.33875,,119.33875
251,2016-05-24,53.96083333333333,,53.96083333333333
251,2016-05-25,126.23416666666667,,126.23416666666667
251,2016-05-26,119.85958333333333,,119.85958333333333
251,2016-05-27,113.59625,,113.59625
251,2016-05-28,120.32291666666667,,120.32291666666667
251,2016-05-29,122.26083333333334,,122.26083333333334
251,2016-05-30,68.51541666666667,,68.51541666666667
251,2016-05-31,113.2475,,113.2475
251,2016-06-01,124.08583333333333,,124.08583333333333
251,2016-06-02,132.3675,,132.3675
251,2016-06-03,42.59083333333333,,42.59083333333333
251,2016-06-04,99.95333333333333,,99.95333333333333
251,2016-06-05,30.807083333333335,,30.807083333333335
251,2016-06-06,126.20333333333333,,126.20333333333333
251,2016-06-07,116.16125,,116.16125
251,2016-06-08,67.78916666666666,,67.78916666666666
251,2016-06-09,146.33583333333334,,146.33583333333334
251,2016-06-10,143.83875,,143.83875
251,2016-06-11,105.09875,,105.09875
251,2016-06-12,137.685,,137.685
251,2016-06-13,129.78125,,129.78125
251,2016-06-14,143.61458333333334,,143.61458333333334
251,2016-06-15,135.94791666666666,,135.94791666666666
251,2016-06-16,37.16916666666666,,37.16916666666666
251,2016-06-17,123.1225,,123.1225
251,2016-06-18,128.90625,,128.90625
251,2016-06-19,131.41916666666665,,131.41916666666665
251,2016-06-20,128.815,,128.815
251,2016-06-21,110.08583333333333,,110.08583333333333
251,2016-06-22,127.91916666666667,,127.91916666666667
251,2016-06-23,57.55208333333332,,57.55208333333332
251,2016-06-24,129.33875,,129.33875
251,2016-06-25,124.30458333333333,,124.30458333333333
251,2016-06-26,124.73166666666667,,124.73166666666667
251,2016-06-27,113.91666666666667,,113.91666666666667
251,2016-06-28,41.07041666666667,,41.07041666666667
251,2016-06-29,109.84375,,109.84375
251,2016-06-30,132.50791666666666,,132.50791666666666
251,2016-07-01,76.65874999999998,,76.65874999999998
251,2016-07-02,128.46625,,128.46625
251,2016-07-03,92.62208333333332,,92.62208333333332
251,2016-07-04,126.9325,,126.9325
251,2016-07-05,85.38791666666668,,85.38791666666668
251,2016-07-06,117.625,,117.625
251,2016-07-07,87.33875,,87.33875
251,2016-07-08,108.82541666666667,,108.82541666666667
251,2016-07-09,41.161249999999995,,41.161249999999995
251,2016-07-10,89.34125,,89.34125
251,2016-07-11,121.22666666666667,,121.22666666666667
251,2016-07-12,129.70041666666665,,129.70041666666665
251,2016-07-13,95.95291666666667,,95.95291666666667
251,2016-07-14,83.20833333333333,,83.20833333333333
251,2016-07-15,89.64583333333331,,89.64583333333331
251,2016-07-16,103.87,,103.87
251,2016-07-17,112.02083333333333,,112.02083333333333
251,2016-07-18,100.505,,100.505
251,2016-07-19,125.82041666666667,,125.82041666666667
251,2016-07-20,130.11958333333334,,130.11958333333334
251,2016-07-21,125.23708333333333,,125.23708333333333
251,2016-07-22,118.76583333333333,,118.76583333333333
251,2016-07-23,122.59083333333332,,122.59083333333332
251,2016-07-24,118.17208333333333,,118.17208333333333
251,2016-07-25,92.38791666666667,,92.38791666666667
251,2016-07-26,121.28375,,121.28375
251,2016-07-27,120.69291666666668,,120.69291666666668
251,2016-07-28,102.005,,102.005
251,2016-07-29,94.21375,,94.21375
251,2016-07-30,72.79166666666666,,72.79166666666666
251,2016-07-31,43.65875,,43.65875
251,2016-08-01,54.6225,,54.6225